COSMOS 2485 (747)

Last updated on Wed Jul 09 2025 00:03:15 GMT+0000 (Coordinated Universal Time)

1 39155U 13019A 25189.41345300 -.00000027 00000+0 00000+0 0 9990 2 39155 65.2269 85.1583 0022504 232.6970 127.1452 2.13104717 94952
UTC large
Height (km)
Speed (km/s)
/
Latitude / Longitude
Inclination (degrees)
Orbital Period (minutes)
Azimuth
Elevation
Range (km)
Doppler Factor

Next 0 passes for location: London (51.5072 / 0.1276)

Sorry there are no passes over London.